Location: Horowhenua
(40.7500°S, 175.3333°E)
Time: 05:56:08
(UTC+00:00)

Cosmos 1943 Rocket - Pass Details

Date: 28 January 2023
Orbit: 811 x 844 km, 71.0° (Epoch: 01 April)

Event Time Altitude Azimuth Distance (km) Brightness Sun altitude
Exits shadow 14:39:18 27° 258° (WSW) 1,550 3.4 -24.0°
Maximum altitude 14:40:27 29° 236° (WSW) 1,479 3.4 -23.9°
Drops below altitude 10° 14:45:17 10° 176° (S) 2,441 5.4 -23.4°
Sets 14:48:03 0° 165° (SSE) 3,376 6.5 -23.1°
